K5NCO Weather Reports


Display with metric or nautical units.
time (UTC)temp
F
wind
direction
speed
MPH
gust
MPH
rain 1hr
in
rain 24hr
in
rain mn
in
humidity
%
barometer
mb
20260504050352 66 143 5.0 6.0 0.00 0.00 0.00 66 1019.0
20260504045849 66 203 4.0 4.0 0.00 0.00 0.00 65 1019.0
20260504045344 66 157 6.0 9.0 0.00 0.00 0.00 65 1018.9
20260504044841 66 209 7.0 9.0 0.00 0.00 0.00 64 1019.1
20260504044339 66 188 8.0 13.0 0.00 0.00 0.00 63 1019.2
20260504043836 67 118 4.0 7.0 0.00 0.00 0.00 63 1019.3
20260504043333 67 162 4.0 4.0 0.00 0.00 0.00 62 1019.1
20260504042830 67 140 8.0 11.0 0.00 0.00 0.00 61 1019.0
20260504042326 67 151 5.0 7.0 0.00 0.00 0.00 61 1019.1
20260504041823 67 149 6.0 8.0 0.00 0.00 0.00 60 1019.2
20260504041319 68 163 8.0 13.0 0.00 0.00 0.00 59 1019.3
20260504040815 68 153 5.0 7.0 0.00 0.00 0.00 58 1019.3
20260504040313 68 98 8.0 10.0 0.00 0.00 0.00 57 1019.2
20260504035809 68 154 10.0 11.0 0.00 0.00 0.00 56 1019.4
20260504035306 68 101 6.0 9.0 0.00 0.00 0.00 56 1019.2
20260504034803 69 155 10.0 11.0 0.00 0.00 0.00 55 1019.2
20260504034301 69 133 5.0 7.0 0.00 0.00 0.00 54 1019.2
20260504033758 68 151 4.0 4.0 0.00 0.00 0.00 54 1019.4
20260504033256 68 156 3.0 6.0 0.00 0.00 0.00 54 1019.0
20260504032752 68 114 4.0 6.0 0.00 0.00 0.00 55 1019.1
20260504032249 68 98 3.0 3.0 0.00 0.00 0.00 55 1019.0
20260504031746 68 157 2.0 3.0 0.00 0.00 0.00 55 1019.0
20260504031243 68 148 3.0 3.0 0.00 0.00 0.00 55 1019.1
20260504030739 69 145 3.0 3.0 0.00 0.00 0.00 55 1019.0
20260504030237 69 135 2.0 3.0 0.00 0.00 0.00 55 1019.0
20260504025733 69 117 2.0 2.0 0.00 0.00 0.00 54 1019.0
20260504025230 69 109 2.0 2.0 0.00 0.00 0.00 54 1018.8
20260504024727 69 108 1.0 2.0 0.00 0.00 0.00 53 1019.2
20260504024223 69 153 2.0 2.0 0.00 0.00 0.00 52 1018.9
20260504023720 70 95 2.0 3.0 0.00 0.00 0.00 51 1019.1
20260504023216 70 136 2.0 2.0 0.00 0.00 0.00 50 1018.8
20260504022712 70 155 3.0 3.0 0.00 0.00 0.00 49 1018.9
20260504022208 70 136 2.0 3.0 0.00 0.00 0.00 49 1019.0
20260504021706 71 156 4.0 4.0 0.00 0.00 0.00 48 1019.2
20260504021203 71 156 2.0 2.0 0.00 0.00 0.00 48 1019.0
20260504020700 71 118 3.0 4.0 0.00 0.00 0.00 48 1018.8
20260504020155 71 161 2.0 3.0 0.00 0.00 0.00 47 1018.8
20260504015652 71 167 3.0 3.0 0.00 0.00 0.00 46 1018.5
20260504015149 72 121 1.0 2.0 0.00 0.00 0.00 46 1018.4
20260504014644 72 148 3.0 4.0 0.00 0.00 0.00 45 1018.4
20260504014142 72 153 3.0 3.0 0.00 0.00 0.00 45 1018.5
20260504013640 73 144 3.0 3.0 0.00 0.00 0.00 44 1018.5
20260504013136 73 127 3.0 3.0 0.00 0.00 0.00 44 1018.3
20260504012633 73 147 2.0 3.0 0.00 0.00 0.00 43 1018.5
20260504012132 73 157 3.0 3.0 0.00 0.00 0.00 43 1018.3
20260504011628 73 160 3.0 3.0 0.00 0.00 0.00 42 1018.6
20260504011125 73 143 4.0 6.0 0.00 0.00 0.00 42 1018.6
20260504010620 73 133 5.0 6.0 0.00 0.00 0.00 41 1018.4
20260504010116 74 136 3.0 3.0 0.00 0.00 0.00 42 1018.5
20260504005613 74 179 6.0 9.0 0.00 0.00 0.00 41 1018.5
20260504005110 74 145 4.0 4.0 0.00 0.00 0.00 41 1018.4
20260504004608 74 140 6.0 8.0 0.00 0.00 0.00 41 1018.4
20260504004105 74 191 4.0 7.0 0.00 0.00 0.00 41 1018.5
20260504003601 74 152 6.0 7.0 0.00 0.00 0.00 41 1018.5
20260504003058 75 130 6.0 7.0 0.00 0.00 0.00 42 1018.5
20260504002555 75 121 3.0 3.0 0.00 0.00 0.00 42 1018.5
20260504002053 75 130 4.0 4.0 0.00 0.00 0.00 42 1018.8
20260504001550 75 162 5.0 6.0 0.00 0.00 0.00 41 1018.7
20260504001046 75 186 6.0 8.0 0.00 0.00 0.00 42 1018.6
20260504000543 75 204 2.0 3.0 0.00 0.00 0.00 43 1018.9
20260504000041 75 91 4.0 6.0 0.00 0.00 0.00 43 1018.9
20260503235539 75 167 6.0 7.0 0.00 0.00 0.00 42 1019.0
20260503235036 75 182 8.0 11.0 0.00 0.00 0.00 41 1018.9
20260503234533 76 203 6.0 8.0 0.00 0.00 0.00 42 1018.9
20260503234031 76 115 5.0 7.0 0.00 0.00 0.00 41 1018.9
20260503233527 76 110 2.0 3.0 0.00 0.00 0.00 42 1019.0
20260503233023 76 174 4.0 4.0 0.00 0.00 0.00 42 1019.0
20260503232521 76 178 3.0 4.0 0.00 0.00 0.00 41 1019.0
20260503232018 76 162 4.0 4.0 0.00 0.00 0.00 42 1019.2
20260503231516 76 162 6.0 7.0 0.00 0.00 0.00 41 1019.1
20260503231012 76 136 4.0 6.0 0.00 0.00 0.00 41 1018.9
20260503230509 76 172 6.0 7.0 0.00 0.00 0.00 41 1018.9
20260503230007 77 153 8.0 10.0 0.00 0.00 0.00 39 1018.8
20260503225503 77 182 6.0 8.0 0.00 0.00 0.00 39 1019.0
20260503224958 78 135 11.0 13.0 0.00 0.00 0.00 38 1018.9
20260503224456 77 104 9.0 15.0 0.00 0.00 0.00 39 1019.0
20260503223953 77 164 5.0 7.0 0.00 0.00 0.00 40 1019.2
20260503223451 77 101 3.0 6.0 0.00 0.00 0.00 40 1019.3
20260503222946 78 169 7.0 8.0 0.00 0.00 0.00 38 1019.3
20260503222445 78 119 5.0 6.0 0.00 0.00 0.00 38 1019.3
20260503221943 78 169 10.0 11.0 0.00 0.00 0.00 39 1019.3
20260503221441 78 208 3.0 6.0 0.00 0.00 0.00 39 1019.5
20260503220937 77 194 8.0 9.0 0.00 0.00 0.00 38 1019.6
20260503220434 78 117 6.0 9.0 0.00 0.00 0.00 39 1019.5
20260503215931 77 128 6.0 7.0 0.00 0.00 0.00 37 1019.6
20260503215428 78 153 10.0 11.0 0.00 0.00 0.00 38 1019.8
20260503214926 77 190 7.0 10.0 0.00 0.00 0.00 36 1019.6
20260503214423 77 157 6.0 7.0 0.00 0.00 0.00 38 1019.8
20260503213920 78 153 7.0 8.0 0.00 0.00 0.00 38 1020.0
20260503213418 78 161 4.0 6.0 0.00 0.00 0.00 38 1020.1
20260503212914 78 85 5.0 6.0 0.00 0.00 0.00 36 1020.3
20260503212412 77 139 7.0 9.0 0.00 0.00 0.00 37 1020.3
20260503211910 77 127 6.0 8.0 0.00 0.00 0.00 39 1020.1
20260503211406 77 139 7.0 11.0 0.00 0.00 0.00 39 1020.3
20260503210901 78 166 6.0 8.0 0.00 0.00 0.00 38 1020.6
20260503210359 78 198 10.0 14.0 0.00 0.00 0.00 39 1020.7
20260503205853 77 196 4.0 4.0 0.00 0.00 0.00 39 1020.8
20260503205350 78 118 5.0 8.0 0.00 0.00 0.00 38 1020.8
20260503204847 77 84 9.0 11.0 0.00 0.00 0.00 39 1020.9
20260503204344 77 152 6.0 9.0 0.00 0.00 0.00 40 1020.9
20260503203841 77 191 7.0 9.0 0.00 0.00 0.00 38 1021.2
20260503203339 77 117 9.0 10.0 0.00 0.00 0.00 38 1021.0
20260503202836 77 102 9.0 10.0 0.00 0.00 0.00 37 1021.3
20260503202334 77 127 4.0 6.0 0.00 0.00 0.00 39 1021.4
20260503201832 77 138 11.0 13.0 0.00 0.00 0.00 37 1021.5
20260503201328 77 161 7.0 9.0 0.00 0.00 0.00 36 1021.6
20260503200826 78 136 7.0 10.0 0.00 0.00 0.00 38 1021.5
20260503200321 79 136 11.0 14.0 0.00 0.00 0.00 34 1021.5
20260503195819 77 77 4.0 10.0 0.00 0.00 0.00 39 1021.7
20260503195315 77 234 8.0 9.0 0.00 0.00 0.00 39 1021.9
20260503194813 77 201 7.0 9.0 0.00 0.00 0.00 38 1021.9
20260503194309 77 79 6.0 7.0 0.00 0.00 0.00 36 1021.9
20260503193805 77 164 9.0 11.0 0.00 0.00 0.00 37 1022.2
20260503193301 76 131 12.0 14.0 0.00 0.00 0.00 37 1022.2
20260503192757 77 163 3.0 4.0 0.00 0.00 0.00 38 1022.1
20260503192252 77 134 8.0 10.0 0.00 0.00 0.00 38 1022.0
20260503191749 77 166 4.0 4.0 0.00 0.00 0.00 40 1022.1
20260503191246 76 201 4.0 4.0 0.00 0.00 0.00 40 1022.4
20260503190743 76 218 3.0 4.0 0.00 0.00 0.00 41 1022.3
20260503190240 76 153 6.0 9.0 0.00 0.00 0.00 39 1022.4
20260503185737 76 145 1.0 3.0 0.00 0.00 0.00 42 1022.4
20260503185232 77 183 8.0 11.0 0.00 0.00 0.00 40 1022.8
20260503184727 76 159 9.0 10.0 0.00 0.00 0.00 38 1022.6
20260503184224 76 156 11.0 13.0 0.00 0.00 0.00 37 1022.8
20260503183720 75 106 6.0 9.0 0.00 0.00 0.00 38 1022.9
20260503183218 76 238 3.0 6.0 0.00 0.00 0.00 39 1023.0
20260503182716 76 128 3.0 3.0 0.00 0.00 0.00 38 1023.1
20260503182214 76 136 8.0 9.0 0.00 0.00 0.00 36 1023.3
20260503181710 77 146 10.0 14.0 0.00 0.00 0.00 37 1023.4
20260503181208 76 97 2.0 3.0 0.00 0.00 0.00 41 1023.2
20260503180704 75 170 6.0 8.0 0.00 0.00 0.00 39 1023.2
20260503180203 75 211 6.0 8.0 0.00 0.00 0.00 41 1023.7
20260503175659 75 127 7.0 8.0 0.00 0.00 0.00 41 1023.7
20260503175156 76 158 9.0 10.0 0.00 0.00 0.00 38 1023.9
20260503174652 75 85 2.0 3.0 0.00 0.00 0.00 44 1023.8
20260503174150 75 179 11.0 11.0 0.00 0.00 0.00 42 1023.8
20260503173645 75 195 4.0 6.0 0.00 0.00 0.00 41 1024.0
20260503173142 75 166 8.0 9.0 0.00 0.00 0.00 40 1023.8
20260503172638 75 90 4.0 6.0 0.00 0.00 0.00 40 1023.8
20260503172136 76 112 4.0 6.0 0.00 0.00 0.00 45 1024.1
20260503171632 75 191 8.0 10.0 0.00 0.00 0.00 40 1024.0
20260503171130 75 94 4.0 6.0 0.00 0.00 0.00 43 1024.1
20260503170626 75 173 3.0 4.0 0.00 0.00 0.00 43 1024.2
20260503170123 75 194 6.0 7.0 0.00 0.00 0.00 41 1024.5
20260503150515 70 199 5.0 7.0 0.00 0.00 0.00 56 1024.6
20260503131408 59 221 5.0 6.0 0.00 0.00 0.00 77 1024.2
20260503130905 59 217 3.0 4.0 0.00 0.00 0.00 78 1024.2
20260503130402 59 213 3.0 3.0 0.00 0.00 0.00 78 1024.4
20260503110806 53 247 0.0 1.0 0.00 0.00 0.00 89 1023.4
20260503110303 53 247 0.0 0.0 0.00 0.00 0.00 89 1023.1
20260503100229 54 233 1.0 2.0 0.00 0.00 0.00 89 1022.8
20260503090154 55 249 0.0 0.0 0.00 0.00 0.00 89 1022.9
20260503081624 55 253 0.0 0.0 0.00 0.00 0.00 89 1022.8
20260503081121 55 253 0.0 0.0 0.00 0.00 0.00 90 1022.6
20260503080617 55 233 0.0 0.0 0.00 0.00 0.00 89 1023.0
20260503080114 55 232 0.0 0.0 0.00 0.00 0.00 89 1023.1
20260503072551 56 248 0.0 0.0 0.00 0.00 0.00 87 1023.1
20260503072048 56 248 0.0 0.0 0.00 0.00 0.00 88 1023.1
20260503071545 56 249 0.0 0.0 0.00 0.00 0.00 87 1023.2
20260503071042 56 248 0.0 0.0 0.00 0.00 0.00 87 1023.2
20260503070538 57 248 0.0 0.0 0.00 0.00 0.00 86 1023.4
20260503054957 58 256 0.0 0.0 0.00 0.00 0.00 83 1023.3
20260503054453 58 256 0.0 0.0 0.00 0.00 0.00 83 1023.3
20260503053951 59 256 0.0 0.0 0.00 0.00 0.00 81 1023.5
20260503053448 59 256 0.0 0.0 0.00 0.00 0.00 79 1023.5
20260503052945 59 256 0.0 0.0 0.00 0.00 0.00 79 1023.6
20260503052443 59 249 0.0 0.0 0.00 0.00 0.00 78 1023.7
20260503051938 59 249 0.0 0.0 0.00 0.00 0.00 79 1023.4
20260503051434 59 239 0.0 0.0 0.00 0.00 0.00 79 1023.5